Location: Vancouver
(49.2500°N, 123.1330°W)
Time: 21:01:50
(UTC-08:00)

Transit 2A Rocket - Visible Passes

Search period start: 01 March 2015 00:00
Search period end: 11 March 2015 01:00
Orbit: 585 x 922 km, 66.7° (Epoch: 01 March)

Date Brightness Start Highest point End Pass type
(mag) Time Alt. Az. Time Alt. Az. Time Alt. Az.
01 Mar 6.6 19:25:13 10° NW 19:30:57 42° WSW 19:36:22 10° S visible
02 Mar 5.9 18:43:00 10° NW 18:49:05 63° WSW 18:54:51 10° SSE visible
02 Mar 8.1 20:28:21 10° WNW 20:30:43 12° WSW 20:32:42 10° WSW visible
03 Mar 7.8 19:44:48 10° WNW 19:49:06 20° WSW 19:53:05 10° SSW visible
04 Mar 7.3 19:02:07 10° NW 19:07:24 31° WSW 19:12:21 10° S visible
06 Mar 8.2 19:22:23 10° WNW 19:25:26 14° WSW 19:28:07 10° SW visible
07 Mar 8.0 18:39:11 10° WNW 18:43:48 22° WSW 18:48:04 10° SSW visible
